This demonstration page uses our WeatherBlox Daily Observations layout. Learn more.

Left ArrowRight Arrow

Hourly Observations for June 14, 2020

Temp ( °F °C ) Dew Point ( °F °C ) Humidity (%) Winds ( mph kmh ) Pressure ( in mb ) Visibility ( mi km ) Precip ( " mm )
12:53 am 00:53 Clear 67 19.4 60 15.6 79 79 Calm 30.10 1019 10 16 0.00 0.00
1:53 am 01:53 Clear 66 18.9 60 15.6 81 81 Calm 30.10 1019 10 16 0.00 0.00
2:53 am 02:53 Clear 64 17.8 60 15.6 87 87 Calm 30.10 1019 10 16 0.00 0.00
3:53 am 03:53 Clear 65 18.3 60 15.6 84 84 Calm 30.09 1019 10 16 0.00 0.00
4:53 am 04:53 Clear 62 16.7 59 15 90 90 Calm 30.10 1019 10 16 0.00 0.00
5:53 am 05:53 Clear 62 16.7 59 15 90 90 NNE 3 6 30.12 1020 10 16 0.00 0.00
6:53 am 06:53 Mostly Cloudy 65 18.3 60 15.6 84 84 Calm 30.14 1021 10 16 0.00 0.00
7:53 am 07:53 Sunny 69 20.6 62 16.7 78 78 NNE 5 7 30.16 1021 10 16 0.00 0.00
8:53 am 08:53 Sunny 73 22.8 62 16.7 69 69 NE 6 9 30.18 1022 10 16 0.00 0.00
9:53 am 09:53 Sunny 75 23.9 62 16.7 64 64 ENE 5 7 30.19 1023 10 16 0.00 0.00
10:53 am 10:53 Sunny 77 25 61 16.1 58 58 VRB 5 7 30.19 1022 10 16 0.00 0.00
11:53 am 11:53 Partly Cloudy 78 25.6 61 16.1 56 56 VRB 5 7 30.19 1022 10 16 0.00 0.00
12:53 pm 12:53 Partly Cloudy 80 26.7 62 16.7 54 54 VRB 5 7 30.17 1022 10 16 0.00 0.00
1:53 pm 13:53 Mostly Cloudy 81 27.2 60 15.6 49 49 ENE 5 7 30.16 1021 10 16 0.00 0.00
2:53 pm 14:53 Partly Cloudy with Nearby Thunderstorms 82 27.8 62 16.7 51 51 ENE 8 13 30.13 1020 10 16 0.00 0.00
3:13 pm 15:13 Sunny 82 27.8 61 16.1 49 49 VRB 6 9 30.11 1020 10 16 0.00 0.00
3:53 pm 15:53 Mostly Sunny 81 27.2 62 16.7 53 53 S 8 13 30.13 1020 10 16 0.00 0.00
4:53 pm 16:53 Sunny 81 27.2 61 16.1 51 51 S 5 7 30.12 1020 10 16 0.00 0.00
5:53 pm 17:53 Sunny 81 27.2 61 16.1 51 51 SSW 6 9 30.12 1020 10 16 0.00 0.00
6:53 pm 18:53 Sunny 82 27.8 60 15.6 47 47 Calm 30.11 1020 10 16 0.00 0.00
7:34 pm 19:34 Mostly Cloudy with Nearby Thunderstorms 72 22.2 57 13.9 59 59 NE 15 24 30.14 1021 10 16 0.00 0.00
7:53 pm 19:53 Mostly Cloudy with Nearby Thunderstorms 72 22.2 56 13.3 57 57 ENE 14 22 30.16 1022 10 16 0.00 0.00
8:34 pm 20:34 Mostly Cloudy 69 20.6 57 13.9 66 66 NE 6 9 30.15 1021 10 16 0.00 0.00
8:53 pm 20:53 Mostly Cloudy with Nearby Thunderstorms 69 20.6 57 13.9 66 66 Calm 30.16 1021 10 16 0.00 0.00
9:08 pm 21:08 Mostly Clear 69 20.6 57 13.9 66 66 SSW 3 6 30.16 1021 10 16 0.00 0.00
9:53 pm 21:53 Clear 68 20 59 15 73 73 Calm 30.17 1022 10 16 0.00 0.00
10:53 pm 22:53 Mostly Clear 64 17.8 59 15 84 84 Calm 30.18 1022 10 16 0.00 0.00
11:53 pm 23:53 Clear 64 17.8 60 15.6 87 87 Calm 30.16 1021 10 16 0.00 0.00

Powered by AerisWeather